Time,TemperatureF,DewpointF,PressureIn,WindDirection,WindDirectionDegrees,WindSpeedMPH,WindSpeedGustMPH,Humidity,HourlyPrecipIn,Conditions,Clouds,dailyrainin,SoftwareType,DateUTC
2013-02-20 00:01:00,7.0,4.0,30.00,NW,318,5.0,32.0,86,0.00,,,0.00,,2013-02-20 06:01:00,
2013-02-20 00:11:00,7.0,4.0,30.00,NW,316,5.0,32.0,86,0.00,,,0.00,,2013-02-20 06:11:00,
2013-02-20 00:21:00,7.0,4.0,30.00,NW,316,5.0,32.0,86,0.00,,,0.00,,2013-02-20 06:21:00,
2013-02-20 00:31:00,7.0,4.0,30.00,North,352,2.0,16.0,86,0.00,,,0.00,,2013-02-20 06:31:00,
2013-02-20 00:42:00,7.0,4.0,30.00,North,352,2.0,16.0,86,0.00,,,0.00,,2013-02-20 06:42:00,
2013-02-20 00:52:00,6.0,3.0,30.00,NW,313,6.0,16.0,86,0.00,,,0.00,,2013-02-20 06:52:00,
2013-02-20 01:01:00,6.0,3.0,30.00,NNW,342,7.0,16.0,86,0.00,,,0.00,,2013-02-20 07:01:00,
2013-02-20 01:11:00,6.0,3.0,30.00,NNW,342,7.0,16.0,86,0.00,,,0.00,,2013-02-20 07:11:00,
2013-02-20 01:21:00,6.0,3.0,30.00,NNW,334,6.0,16.0,86,0.00,,,0.00,,2013-02-20 07:21:00,
2013-02-20 01:31:00,6.0,3.0,30.00,NW,304,6.0,16.0,86,0.00,,,0.00,,2013-02-20 07:31:00,
2013-02-20 01:41:00,6.0,3.0,30.00,NW,304,6.0,16.0,86,0.00,,,0.00,,2013-02-20 07:41:00,
2013-02-20 01:52:00,5.0,2.0,30.00,WNW,303,3.0,16.0,86,0.00,,,0.00,,2013-02-20 07:52:00,
2013-02-20 02:05:00,5.0,2.0,30.00,WNW,296,3.0,16.0,86,0.00,,,0.00,,2013-02-20 08:05:00,
2013-02-20 02:11:00,5.0,2.0,30.00,WNW,296,3.0,16.0,86,0.00,,,0.00,,2013-02-20 08:11:00,
2013-02-20 02:21:00,5.0,2.0,30.00,NW,324,2.0,16.0,86,0.00,,,0.00,,2013-02-20 08:21:00,
2013-02-20 02:31:00,5.0,2.0,30.00,WSW,247,0.0,16.0,86,0.00,,,0.00,,2013-02-20 08:31:00,
2013-02-20 02:41:00,5.0,2.0,30.00,WSW,247,0.0,16.0,86,0.00,,,0.00,,2013-02-20 08:41:00,
2013-02-20 02:52:00,5.0,2.0,30.00,WNW,299,5.0,16.0,86,0.00,,,0.00,,2013-02-20 08:52:00,
2013-02-20 03:01:00,5.0,2.0,30.00,NW,314,3.0,16.0,86,0.00,,,0.00,,2013-02-20 09:01:00,
2013-02-20 03:11:00,5.0,2.0,30.00,NW,314,3.0,16.0,86,0.00,,,0.00,,2013-02-20 09:11:00,
2013-02-20 03:21:00,4.0,1.0,30.00,WNW,290,2.0,16.0,86,0.00,,,0.00,,2013-02-20 09:21:00,
2013-02-20 03:31:00,4.0,1.0,30.00,NNW,335,6.0,16.0,86,0.00,,,0.00,,2013-02-20 09:31:00,
2013-02-20 03:42:00,4.0,1.0,30.00,NNW,335,6.0,16.0,86,0.00,,,0.00,,2013-02-20 09:42:00,
2013-02-20 03:52:00,4.0,1.0,30.00,NW,325,6.0,16.0,86,0.00,,,0.00,,2013-02-20 09:52:00,
2013-02-20 04:01:00,4.0,1.0,30.00,WNW,297,5.0,32.0,86,0.00,,,0.00,,2013-02-20 10:01:00,
2013-02-20 04:12:00,4.0,1.0,30.00,WNW,297,5.0,32.0,86,0.00,,,0.00,,2013-02-20 10:12:00,
2013-02-20 04:22:00,4.0,1.0,30.00,WNW,294,3.0,32.0,86,0.00,,,0.00,,2013-02-20 10:22:00,
2013-02-20 04:31:00,4.0,1.0,30.00,WNW,291,5.0,32.0,86,0.00,,,0.00,,2013-02-20 10:31:00,
2013-02-20 04:41:00,4.0,1.0,30.00,WNW,291,5.0,32.0,86,0.00,,,0.00,,2013-02-20 10:41:00,
2013-02-20 04:52:00,4.0,1.0,30.00,WNW,292,1.0,32.0,86,0.00,,,0.00,,2013-02-20 10:52:00,
2013-02-20 05:02:00,3.0,0.0,30.00,WNW,301,3.0,32.0,86,0.00,,,0.00,,2013-02-20 11:02:00,
2013-02-20 05:11:00,3.0,0.0,30.00,WSW,251,1.0,32.0,86,0.00,,,0.00,,2013-02-20 11:11:00,
2013-02-20 05:21:00,3.0,0.0,30.00,WSW,251,1.0,32.0,86,0.00,,,0.00,,2013-02-20 11:21:00,
2013-02-20 05:32:00,4.0,1.0,30.00,NW,308,3.0,32.0,86,0.00,,,0.00,,2013-02-20 11:32:00,
2013-02-20 05:41:00,4.0,1.0,30.00,NW,308,3.0,32.0,86,0.00,,,0.00,,2013-02-20 11:41:00,
2013-02-20 05:52:00,4.0,1.0,30.00,NW,325,2.0,32.0,86,0.00,,,0.00,,2013-02-20 11:52:00,
2013-02-20 06:01:00,3.0,0.0,30.00,WNW,302,2.0,32.0,86,0.00,,,0.00,,2013-02-20 12:01:00,
2013-02-20 06:12:00,3.0,0.0,30.00,WNW,302,2.0,32.0,86,0.00,,,0.00,,2013-02-20 12:12:00,
2013-02-20 06:21:00,4.0,1.0,30.00,NW,316,6.0,32.0,86,0.00,,,0.00,,2013-02-20 12:21:00,
2013-02-20 06:32:00,4.0,1.0,30.00,NW,316,6.0,32.0,86,0.00,,,0.00,,2013-02-20 12:32:00,
2013-02-20 06:42:00,4.0,1.0,30.00,NW,316,6.0,32.0,86,0.00,,,0.00,,2013-02-20 12:42:00,
2013-02-20 06:53:00,4.0,1.0,30.00,NW,316,6.0,32.0,86,0.00,,,0.00,,2013-02-20 12:53:00,
2013-02-20 07:01:00,4.0,1.0,30.00,NW,316,6.0,32.0,86,0.00,,,0.00,,2013-02-20 13:01:00,
2013-02-20 08:01:00,5.0,2.0,30.00,WNW,284,2.0,32.0,86,0.00,,,0.00,,2013-02-20 14:01:00,
2013-02-20 08:11:00,5.0,2.0,30.00,WNW,284,2.0,32.0,86,0.00,,,0.00,,2013-02-20 14:11:00,
2013-02-20 08:21:00,5.0,2.0,30.00,WNW,284,2.0,32.0,86,0.00,,,0.00,,2013-02-20 14:21:00,
2013-02-20 08:32:00,5.0,2.0,30.00,WNW,284,2.0,32.0,86,0.00,,,0.00,,2013-02-20 14:32:00,
2013-02-20 08:42:00,7.0,4.0,30.00,NNE,19,5.0,32.0,86,0.00,,,0.00,,2013-02-20 14:42:00,
2013-02-20 08:52:00,7.0,4.0,30.00,NNE,19,5.0,32.0,86,0.00,,,0.00,,2013-02-20 14:52:00,
2013-02-20 09:01:00,7.0,4.0,30.00,NNE,19,5.0,32.0,86,0.00,,,0.00,,2013-02-20 15:01:00,
2013-02-20 09:11:00,9.0,6.0,30.00,WNW,303,5.0,32.0,86,0.00,,,0.00,,2013-02-20 15:11:00,
2013-02-20 09:22:00,9.0,6.0,30.00,WNW,303,5.0,32.0,86,0.00,,,0.00,,2013-02-20 15:22:00,
2013-02-20 09:32:00,10.0,7.0,30.00,North,8,5.0,32.0,86,0.00,,,0.00,,2013-02-20 15:32:00,
2013-02-20 09:42:00,11.0,8.0,30.00,North,356,1.0,32.0,86,0.00,,,0.00,,2013-02-20 15:42:00,
2013-02-20 10:01:00,12.0,9.0,30.00,West,269,2.0,32.0,86,0.00,,,0.00,,2013-02-20 16:01:00,
2013-02-20 10:32:00,12.0,9.0,30.00,WNW,287,5.0,32.0,86,0.00,,,0.00,,2013-02-20 16:32:00,
2013-02-20 10:41:00,12.0,9.0,30.00,WNW,287,5.0,32.0,86,0.00,,,0.00,,2013-02-20 16:41:00,
2013-02-20 10:52:00,12.0,9.0,30.00,WNW,287,5.0,32.0,86,0.00,,,0.00,,2013-02-20 16:52:00,
2013-02-20 11:01:00,14.0,11.0,30.00,North,356,2.0,32.0,86,0.00,,,0.00,,2013-02-20 17:01:00,
2013-02-20 11:11:00,15.0,12.0,30.00,North,11,3.0,32.0,86,0.00,,,0.00,,2013-02-20 17:11:00,
2013-02-20 11:32:00,14.0,11.0,30.00,WNW,293,5.0,32.0,86,0.00,,,0.00,,2013-02-20 17:32:00,
2013-02-20 11:42:00,14.0,11.0,30.00,WNW,293,5.0,32.0,86,0.00,,,0.00,,2013-02-20 17:42:00,
2013-02-20 11:52:00,15.0,12.0,30.00,NW,325,3.0,32.0,86,0.00,,,0.00,,2013-02-20 17:52:00,
2013-02-20 12:02:00,15.0,12.0,30.00,WNW,288,7.0,32.0,86,0.00,,,0.00,,2013-02-20 18:02:00,
2013-02-20 12:11:00,15.0,12.0,30.00,WNW,288,7.0,32.0,86,0.00,,,0.00,,2013-02-20 18:11:00,
2013-02-20 12:21:00,15.0,12.0,30.00,WNW,288,7.0,32.0,86,0.00,,,0.00,,2013-02-20 18:21:00,
2013-02-20 12:32:00,15.0,12.0,30.00,WNW,288,7.0,32.0,86,0.00,,,0.00,,2013-02-20 18:32:00,
2013-02-20 12:42:00,15.0,12.0,30.00,WNW,288,7.0,32.0,86,0.00,,,0.00,,2013-02-20 18:42:00,
2013-02-20 12:52:00,18.0,15.0,30.00,SW,236,3.0,32.0,86,0.00,,,0.00,,2013-02-20 18:52:00,
2013-02-20 13:01:00,19.0,16.0,30.00,NW,307,3.0,32.0,86,0.00,,,0.00,,2013-02-20 19:01:00,
2013-02-20 13:21:00,19.0,16.0,30.00,WNW,283,5.0,32.0,86,0.00,,,0.00,,2013-02-20 19:21:00,
2013-02-20 13:31:00,20.0,16.0,30.00,WNW,291,2.0,32.0,86,0.00,,,0.00,,2013-02-20 19:31:00,
2013-02-20 13:51:00,20.0,16.0,30.00,WNW,283,5.0,32.0,86,0.00,,,0.00,,2013-02-20 19:51:00,
2013-02-20 14:01:00,20.0,16.0,30.00,NNE,13,5.0,32.0,86,0.00,,,0.00,,2013-02-20 20:01:00,
2013-02-20 14:11:00,20.0,16.0,30.00,WNW,294,5.0,32.0,86,0.00,,,0.00,,2013-02-20 20:11:00,
2013-02-20 14:21:00,20.0,16.0,30.00,WNW,294,5.0,32.0,86,0.00,,,0.00,,2013-02-20 20:21:00,
2013-02-20 14:31:00,22.0,18.0,30.00,NW,324,6.0,32.0,86,0.00,,,0.00,,2013-02-20 20:31:00,
2013-02-20 16:01:00,22.0,18.0,30.00,NNE,31,3.0,32.0,86,0.00,,,0.00,,2013-02-20 22:01:00,
2013-02-20 16:11:00,22.0,18.0,30.00,NNE,31,3.0,32.0,86,0.00,,,0.00,,2013-02-20 22:11:00,
2013-02-20 16:21:00,22.0,18.0,30.00,NNE,31,3.0,32.0,86,0.00,,,0.00,,2013-02-20 22:21:00,
2013-02-20 16:31:00,22.0,18.0,30.00,NNE,21,1.0,32.0,86,0.00,,,0.00,,2013-02-20 22:31:00,
2013-02-20 16:52:00,22.0,18.0,30.00,North,8,0.0,32.0,86,0.00,,,0.00,,2013-02-20 22:52:00,
2013-02-20 17:01:00,22.0,18.0,30.00,North,8,0.0,32.0,86,0.00,,,0.00,,2013-02-20 23:01:00,
2013-02-20 17:12:00,23.0,19.0,30.00,North,8,0.0,32.0,86,0.00,,,0.00,,2013-02-20 23:12:00,
2013-02-20 17:22:00,23.0,19.0,30.00,North,8,0.0,32.0,86,0.00,,,0.00,,2013-02-20 23:22:00,
2013-02-20 17:31:00,22.0,18.0,30.00,North,8,0.0,32.0,86,0.00,,,0.00,,2013-02-20 23:31:00,
2013-02-20 17:42:00,22.0,18.0,30.00,North,8,0.0,32.0,86,0.00,,,0.00,,2013-02-20 23:42:00,
2013-02-20 17:52:00,22.0,18.0,30.00,North,8,0.0,32.0,86,0.00,,,0.00,,2013-02-20 23:52:00,
2013-02-20 18:03:00,22.0,18.0,30.00,North,8,0.0,32.0,86,0.00,,,0.00,,2013-02-21 00:03:00,
2013-02-20 18:22:00,19.0,16.0,30.00,SSW,209,0.0,32.0,86,0.00,,,0.00,,2013-02-21 00:22:00,
2013-02-20 18:32:00,19.0,16.0,30.00,SSW,209,0.0,32.0,86,0.00,,,0.00,,2013-02-21 00:32:00,
2013-02-20 18:42:00,19.0,16.0,30.00,SSW,209,0.0,32.0,86,0.00,,,0.00,,2013-02-21 00:42:00,
2013-02-20 18:52:00,19.0,16.0,30.00,SSW,209,0.0,32.0,86,0.00,,,0.00,,2013-02-21 00:52:00,
2013-02-20 19:01:00,19.0,16.0,30.00,SSW,209,0.0,32.0,86,0.00,,,0.00,,2013-02-21 01:01:00,
2013-02-20 22:01:00,16.0,13.0,30.00,ENE,59,0.0,32.0,86,0.00,,,0.00,,2013-02-21 04:01:00,
2013-02-20 22:11:00,16.0,13.0,30.00,ENE,59,0.0,32.0,86,0.00,,,0.00,,2013-02-21 04:11:00,
2013-02-20 22:22:00,16.0,13.0,30.00,ENE,59,0.0,32.0,86,0.00,,,0.00,,2013-02-21 04:22:00,
2013-02-20 22:32:00,16.0,13.0,30.00,ENE,59,0.0,32.0,86,0.00,,,0.00,,2013-02-21 04:32:00,
2013-02-20 22:42:00,16.0,13.0,30.00,ENE,59,0.0,32.0,86,0.00,,,0.00,,2013-02-21 04:42:00,
2013-02-20 22:52:00,15.0,12.0,30.00,ENE,59,0.0,32.0,86,0.00,,,0.00,,2013-02-21 04:52:00,
2013-02-20 23:02:00,14.0,11.0,30.00,ENE,59,0.0,32.0,86,0.00,,,0.00,,2013-02-21 05:02:00,
2013-02-20 23:12:00,14.0,11.0,30.00,ENE,59,0.0,32.0,86,0.00,,,0.00,,2013-02-21 05:12:00,
2013-02-20 23:22:00,15.0,12.0,30.00,ENE,59,0.0,32.0,86,0.00,,,0.00,,2013-02-21 05:22:00,
2013-02-20 23:33:00,14.0,11.0,30.00,ENE,59,0.0,32.0,86,0.00,,,0.00,,2013-02-21 05:33:00,
2013-02-20 23:43:00,14.0,11.0,30.00,ENE,59,0.0,32.0,86,0.00,,,0.00,,2013-02-21 05:43:00,
2013-02-20 23:59:00,14.0,11.0,30.00,ENE,59,0.0,32.0,86,0.00,,,0.00,,2013-02-21 05:59:00,